[[{"header":{"parameterUnit":"m.s-1","parameterCategory":1,"la1":30.2991,"la2":30.254,"lo1":-89.0895,"lo2":-89.0444,"dy":0.0017,"dx":0.0017,"nx":28,"ny":28,"refTime":"2026-01-05T03:00:00:Z","depth":0,"parameterNumber":2,"parameterNumberName":"U-component_of_WINDS"},"data":[0,0,0,0,0,0,0,0,0,0,0,0,0,0,0,0,0,0,0,0,0,0,0,0,0,0,0,0,0,0,0,0,0,0,0,0,0,0,0,0,0,0,0,0,0,0,0,0,0,0,0,0,0,0,0,0,0,0,-0.8566,-0.8565,0,-0.8476,-0.8475,-0.8474,-0.8424,-0.8424,-0.8424,-0.8424,-0.8331,-0.8328,-0.8326,0,0,0,0,0,0,0,0,0,0,0,0,0,-0.8691,-0.8689,-0.8566,-0.8565,-0.8564,-0.8477,-0.8475,-0.8474,-0.8424,-0.8424,-0.8424,-0.8424,-0.8331,-0.8329,-0.8326,0,0,0,0,0,0,0,0,0,0,0,0,0,-0.8623,-0.8689,-0.8566,-0.8528,-0.8524,-0.8477,-0.8475,-0.8474,-0.8424,-0.8424,-0.8424,-0.8424,-0.8332,-0.8329,-0.8325,-0.8308,0,0,-0.8315,-0.8313,0,0,0,0,0,0,0,0,-0.8627,-0.8618,-0.8535,-0.8531,-0.8526,-0.8461,-0.8485,-0.8418,-0.8424,-0.8462,-0.8424,-0.8424,-0.8374,-0.8367,-0.8351,-0.8304,-0.83,-0.8314,-0.8312,-0.8311,-0.831,0,0,0,0,0,0,0,-0.8632,-0.8622,-0.853,-0.8534,-0.8528,-0.8515,-0.8505,-0.8472,-0.842,-0.8459,-0.8455,-0.8445,-0.8372,-0.8354,-0.8348,-0.8298,-0.8314,-0.8311,-0.8309,-0.8308,-0.8232,-0.8232,0,0,0,0,0,0,-0.8643,-0.8626,-0.8533,-0.8528,-0.8577,-0.8513,-0.8502,-0.8482,-0.8421,-0.8411,-0.8446,-0.8443,-0.836,-0.8352,-0.8345,-0.832,-0.8311,-0.8307,-0.8305,-0.8232,-0.8232,-0.8232,0,0,0,0,0,0,-0.8646,-0.8635,-0.8537,-0.8576,-0.8562,-0.8511,-0.8489,-0.8481,-0.8463,-0.8411,-0.8401,-0.8438,-0.836,-0.835,-0.8318,-0.8316,-0.8306,-0.8303,-0.8232,-0.8232,-0.8232,-0.827,0,0,0,0,0,0,-0.8649,-0.8636,-0.863,-0.8576,-0.8561,-0.8512,-0.8489,-0.8479,-0.8458,-0.8454,-0.8401,-0.8392,-0.8359,-0.8323,-0.8314,-0.8311,-0.83,-0.8231,-0.8232,-0.8232,-0.8269,-0.8272,-0.8274,0,0,0,0,0,-0.8654,-0.8644,-0.863,-0.8619,-0.8551,-0.8512,-0.8503,-0.8466,-0.8458,-0.845,-0.8416,-0.8393,-0.8318,-0.832,-0.831,-0.8305,-0.8231,-0.8232,-0.8232,-0.8268,-0.8271,-0.8274,0,0,0,0,0,0,-0.8698,-0.8636,-0.862,-0.8592,-0.8558,-0.8504,-0.8493,-0.8471,-0.8438,-0.8436,-0.8391,-0.8379,-0.8351,-0.8325,-0.8329,-0.8285,-0.8272,-0.827,-0.8303,-0.8306,-0.8309,-0.8315,-0.8297,0,0,0,0,0,-0.8705,-0.8679,-0.8626,-0.8606,-0.859,-0.8545,-0.8526,-0.8501,-0.8463,-0.8448,-0.8412,-0.8376,-0.8343,-0.8323,-0.8291,-0.8265,-0.8252,-0.8257,-0.826,-0.8262,-0.8261,-0.8244,-0.8245,-0.8233,-0.8233,-0.8233,0,0,-0.8718,-0.8681,-0.8667,-0.8614,-0.8585,-0.8558,-0.8533,-0.8505,-0.8485,-0.8444,-0.8411,-0.8383,-0.834,-0.8311,-0.8296,-0.8288,-0.8262,-0.8262,-0.8265,-0.8262,-0.8245,-0.8246,-0.8247,-0.8233,-0.8233,-0.8233,0,0,-0.8728,-0.8698,-0.8678,-0.8649,-0.8604,-0.8574,-0.857,-0.8519,-0.8499,-0.8465,-0.8434,-0.8408,-0.8355,-0.8325,-0.8302,-0.8301,-0.8278,-0.8292,-0.8305,-0.829,-0.8291,-0.8291,-0.829,-0.829,-0.8291,-0.8291,-0.8291,0,-0.875,-0.8709,-0.8671,-0.8645,-0.8622,-0.8584,-0.8563,-0.8537,-0.8484,-0.8469,-0.8461,-0.8392,-0.836,-0.8323,-0.8323,-0.8306,-0.8299,-0.8297,-0.8294,-0.8294,-0.8294,-0.8292,-0.8292,-0.8293,-0.8292,-0.8292,-0.8292,0,-0.8737,-0.8709,-0.8698,-0.8649,-0.8625,-0.8602,-0.8559,-0.854,-0.8516,-0.8487,-0.8453,-0.8414,-0.8372,-0.8362,-0.8339,-0.8321,-0.8317,-0.8302,-0.8288,-0.8298,-0.8295,-0.8294,-0.8295,-0.8295,-0.8294,-0.8294,0,0,-0.8772,-0.8702,-0.8698,-0.8675,-0.8623,-0.86,-0.8575,-0.8535,-0.8519,-0.8484,-0.8461,-0.8416,-0.8401,-0.8376,-0.835,-0.8336,-0.8337,-0.8322,-0.832,-0.8326,-0.8314,-0.8325,-0.8325,-0.8321,-0.8321,-0.8321,-0.8317,0,-0.8774,-0.8728,-0.8693,-0.8659,-0.8632,-0.8596,-0.8574,-0.8539,-0.8511,-0.8484,-0.8452,-0.8421,-0.8404,-0.8389,-0.8374,-0.834,-0.8333,-0.834,-0.8299,-0.8298,-0.831,-0.8324,-0.8336,-0.8334,-0.8316,-0.8316,-0.8316,0,-0.8771,-0.8737,-0.8701,-0.8651,-0.8639,-0.862,-0.858,-0.8554,-0.8514,-0.8494,-0.8466,-0.8439,-0.841,-0.8399,-0.8358,-0.8363,-0.8344,-0.8325,-0.8324,-0.8318,-0.8307,-0.8318,-0.8333,-0.8332,-0.8314,-0.8314,-0.8314,0,-0.8799,-0.8745,-0.8716,-0.8697,-0.8639,-0.8626,-0.8601,-0.8561,-0.8539,-0.8504,-0.8489,-0.8451,-0.843,-0.8401,-0.8364,-0.836,-0.8327,-0.8313,-0.8309,-0.831,-0.8303,-0.8304,-0.8314,-0.8292,-0.8292,-0.8292,-0.8292,0,-0.8805,-0.8784,-0.8728,-0.871,-0.8686,-0.8645,-0.8622,-0.8593,-0.8558,-0.8533,-0.85,-0.8477,-0.843,-0.8401,-0.8372,-0.8342,-0.8333,-0.8316,-0.8308,-0.8318,-0.8321,-0.8305,-0.8304,-0.8292,-0.8292,-0.8292,-0.8292,0,-0.8832,-0.8794,-0.876,-0.8707,-0.8694,-0.8678,-0.8633,-0.8614,-0.8584,-0.8553,-0.8544,-0.8496,-0.8461,-0.8421,-0.8373,-0.8353,-0.8325,-0.8314,-0.8339,-0.8334,-0.8332,-0.8333,-0.8333,-0.833,-0.8311,-0.8311,-0.8311,0,-0.8838,-0.8821,-0.8767,-0.8748,-0.8724,-0.8695,-0.8672,-0.8632,-0.8609,-0.8562,-0.8549,-0.8511,-0.8479,-0.8424,-0.8385,-0.8348,-0.8335,-0.8338,-0.833,-0.834,-0.8335,-0.8336,-0.8334,-0.834,-0.8341,-0.8341,-0.8341,0,-0.8852,-0.8834,-0.8803,-0.8765,-0.874,-0.8708,-0.8675,-0.8661,-0.8614,-0.859,-0.8554,-0.8529,-0.848,-0.8443,-0.8401,-0.8374,-0.8349,-0.8345,-0.8341,-0.8352,-0.8366,-0.8358,-0.8345,-0.8345,-0.8344,-0.8344,-0.8344,-0.8344,-0.8868,-0.8851,-0.881,-0.8777,-0.8748,-0.8717,-0.8697,-0.8664,-0.8634,-0.8591,-0.8568,-0.8532,-0.8492,-0.8433,-0.8407,-0.8378,-0.837,-0.8365,-0.8364,-0.8364,-0.8366,-0.8372,-0.837,-0.837,-0.837,-0.8369,-0.8369,0,-0.888,-0.8852,-0.8822,-0.8776,-0.875,-0.873,-0.8692,-0.8671,-0.864,-0.8604,-0.8573,-0.8531,-0.8495,-0.8453,-0.8414,-0.8399,-0.8387,-0.839,-0.839,-0.8384,-0.8376,-0.8382,-0.84,-0.84,-0.84,-0.84,-0.84,-0.84,-0.8883,-0.8853,-0.883,-0.8785,-0.8757,-0.8722,-0.8702,-0.8674,-0.8645,-0.86,-0.857,-0.8543,-0.8504,-0.8462,-0.8428,-0.8416,-0.8403,-0.841,-0.8395,-0.8388,-0.8385,-0.8383,-0.8388,-0.8407,-0.8407,-0.8405,-0.8405,-0.8405]},{"header":{"parameterUnit":"m.s-1","parameterCategory":1,"la1":30.2991,"la2":30.254,"lo1":-89.0895,"lo2":-89.0444,"dy":0.0017,"dx":0.0017,"nx":28,"ny":28,"refTime":"2026-01-05T03:00:00:Z","depth":0,"parameterNumber":3,"parameterNumberName":"V-component_of_WINDS"},"data":[0,0,0,0,0,0,0,0,0,0,0,0,0,0,0,0,0,0,0,0,0,0,0,0,0,0,0,0,0,0,0,0,0,0,0,0,0,0,0,0,0,0,0,0,0,0,0,0,0,0,0,0,0,0,0,0,0,0,1.647,1.6471,0,1.6629,1.6631,1.6633,1.6709,1.6709,1.6708,1.6708,1.6872,1.6877,1.6881,0,0,0,0,0,0,0,0,0,0,0,0,0,1.6234,1.6238,1.6469,1.6471,1.6473,1.6629,1.6631,1.6633,1.6709,1.6709,1.6708,1.6708,1.6871,1.6876,1.6881,0,0,0,0,0,0,0,0,0,0,0,0,0,1.6359,1.6239,1.6469,1.653,1.6537,1.6628,1.6631,1.6634,1.6709,1.6709,1.6708,1.6708,1.6869,1.6876,1.6882,1.6925,0,0,1.6902,1.6905,0,0,0,0,0,0,0,0,1.6352,1.6367,1.6519,1.6526,1.6534,1.6649,1.6608,1.6731,1.6709,1.6643,1.6708,1.6708,1.6798,1.6811,1.6841,1.6933,1.694,1.6903,1.6907,1.691,1.6912,0,0,0,0,0,0,0,1.6343,1.6361,1.6533,1.6521,1.653,1.655,1.6568,1.6632,1.6719,1.6649,1.6655,1.6673,1.6802,1.6834,1.6845,1.6942,1.6903,1.6909,1.6913,1.6915,1.7082,1.7082,0,0,0,0,0,0,1.6324,1.6353,1.6528,1.6537,1.6441,1.6555,1.6574,1.6612,1.6719,1.6735,1.6673,1.6676,1.6823,1.6837,1.6851,1.6911,1.691,1.6916,1.692,1.7082,1.7082,1.7083,0,0,0,0,0,0,1.6319,1.6339,1.6521,1.6447,1.6472,1.6559,1.66,1.6615,1.6647,1.6737,1.6753,1.6689,1.6823,1.6842,1.6907,1.6918,1.6919,1.6925,1.7081,1.7082,1.7082,1.7029,0,0,0,0,0,0,1.6312,1.6336,1.6353,1.6447,1.6475,1.6573,1.6601,1.6618,1.6658,1.6664,1.6756,1.6772,1.6825,1.6897,1.6914,1.6927,1.693,1.708,1.7081,1.7082,1.7031,1.7028,1.7026,0,0,0,0,0,1.6303,1.6331,1.6353,1.6374,1.6498,1.6574,1.659,1.665,1.6659,1.6677,1.6735,1.6769,1.6914,1.6903,1.6923,1.6938,1.708,1.7081,1.7082,1.7032,1.7029,1.7026,0,0,0,0,0,0,1.6235,1.6344,1.637,1.6429,1.6492,1.6586,1.661,1.6645,1.6706,1.6708,1.6781,1.6801,1.6861,1.6906,1.6892,1.6987,1.7,1.7005,1.6955,1.6953,1.6951,1.6939,1.6936,0,0,0,0,0,1.6227,1.6279,1.6372,1.6415,1.6445,1.6522,1.6558,1.6599,1.6667,1.6693,1.6756,1.6821,1.6882,1.692,1.698,1.7038,1.706,1.7058,1.7056,1.7054,1.7057,1.7094,1.7095,1.7086,1.7086,1.7086,0,0,1.6211,1.6277,1.6305,1.6403,1.6457,1.651,1.6544,1.6598,1.6639,1.6702,1.6768,1.6816,1.6894,1.6956,1.6986,1.6995,1.7065,1.7055,1.7052,1.7057,1.7095,1.7095,1.7096,1.7086,1.7086,1.7086,0,0,1.6209,1.6264,1.6307,1.636,1.6441,1.6492,1.6503,1.6593,1.6628,1.6695,1.6744,1.6794,1.6896,1.6951,1.6991,1.7013,1.7048,1.7031,1.7019,1.7054,1.7055,1.7056,1.7065,1.7068,1.7034,1.7034,1.7034,0,1.6179,1.6261,1.6325,1.6378,1.6421,1.648,1.6526,1.6575,1.667,1.6699,1.6708,1.684,1.6896,1.6973,1.6978,1.7009,1.7024,1.7021,1.7049,1.7051,1.7053,1.7063,1.7066,1.7032,1.7032,1.7032,1.7033,0,1.6221,1.6277,1.6303,1.6395,1.6441,1.6489,1.6562,1.6601,1.6639,1.669,1.676,1.683,1.6907,1.6928,1.6965,1.7011,1.7015,1.7035,1.705,1.705,1.7061,1.7065,1.7028,1.7029,1.703,1.703,0,0,1.6179,1.6308,1.6317,1.6361,1.6455,1.6501,1.6553,1.6629,1.6662,1.6727,1.6774,1.686,1.6881,1.6928,1.6972,1.7002,1.7018,1.702,1.7023,1.7018,1.7076,1.706,1.7063,1.7041,1.7042,1.7043,1.707,0,1.6192,1.6288,1.6349,1.6422,1.6476,1.6535,1.6581,1.6645,1.6695,1.6749,1.6805,1.6866,1.6888,1.6916,1.6949,1.7009,1.7031,1.7008,1.7087,1.7089,1.7066,1.7069,1.7052,1.7073,1.7074,1.7075,1.7075,0,1.6218,1.6283,1.6361,1.6453,1.6478,1.6518,1.6594,1.6645,1.6719,1.6754,1.6807,1.6852,1.6912,1.6922,1.7007,1.699,1.7026,1.7061,1.7063,1.7073,1.7082,1.708,1.7082,1.7085,1.7082,1.7082,1.7081,0,1.6182,1.6289,1.635,1.6386,1.6493,1.6521,1.6567,1.6642,1.6684,1.6751,1.678,1.6852,1.6892,1.6948,1.7012,1.7013,1.7091,1.7106,1.7123,1.7121,1.7136,1.7135,1.7145,1.7158,1.7158,1.7158,1.7158,0,1.619,1.6236,1.6336,1.6373,1.6428,1.6498,1.655,1.6601,1.6668,1.6718,1.6773,1.6819,1.6901,1.6957,1.7008,1.7072,1.7089,1.712,1.7133,1.7115,1.7111,1.714,1.7141,1.7159,1.7159,1.7158,1.7158,0,1.6158,1.6226,1.6298,1.6395,1.6421,1.6456,1.654,1.658,1.6634,1.6697,1.6715,1.68,1.687,1.694,1.7033,1.7067,1.713,1.7147,1.7105,1.7113,1.7126,1.7124,1.7156,1.7164,1.717,1.717,1.717,0,1.6159,1.6196,1.6298,1.6335,1.6381,1.644,1.6485,1.6556,1.66,1.669,1.6719,1.6793,1.6856,1.6965,1.7035,1.7108,1.7128,1.7134,1.7139,1.7122,1.713,1.7128,1.7133,1.7132,1.7131,1.7131,1.7131,0,1.6153,1.6186,1.6248,1.6322,1.6374,1.6436,1.65,1.6528,1.6612,1.6659,1.6731,1.678,1.6877,1.695,1.7032,1.7081,1.7121,1.7129,1.7137,1.712,1.7094,1.711,1.71,1.7128,1.7128,1.7128,1.7128,1.7129,1.6139,1.6176,1.6254,1.6322,1.6378,1.6437,1.648,1.654,1.6602,1.6686,1.6725,1.6798,1.6875,1.6989,1.7037,1.7097,1.7107,1.7118,1.7121,1.7123,1.712,1.7084,1.7111,1.7112,1.7112,1.7112,1.7112,0,1.6138,1.6192,1.6253,1.6342,1.6396,1.6429,1.6503,1.6546,1.6609,1.6678,1.6739,1.6824,1.6896,1.6973,1.705,1.7083,1.7103,1.7101,1.7099,1.7111,1.7105,1.7091,1.7083,1.7083,1.7083,1.7083,1.7083,1.7083,1.6144,1.6208,1.6251,1.6345,1.6399,1.6472,1.6511,1.6567,1.6622,1.6714,1.6775,1.6824,1.6897,1.6981,1.7049,1.707,1.7096,1.7089,1.7115,1.7109,1.7111,1.7113,1.71,1.7094,1.7094,1.7116,1.7116,1.7116]}]]